TimeEST,TemperatureF,Dew PointF,Humidity,Sea Level PressureIn,VisibilityMPH,Wind Direction,Wind SpeedMPH,Gust SpeedMPH,PrecipitationIn,Events,Conditions,WindDirDegrees,DateUTC
12:03 AM,12.2,-4.0,48,30.45,10.0,WNW,8.1,17.3,N/A,,Clear,290,2014-01-24 05:03:00
12:24 AM,12.2,-4.0,48,30.45,10.0,West,9.2,-,N/A,,Clear,280,2014-01-24 05:24:00
12:45 AM,12.2,-4.0,48,30.45,10.0,NW,6.9,-,N/A,,Clear,310,2014-01-24 05:45:00
1:03 AM,10.4,-2.2,57,30.45,10.0,WNW,8.1,17.3,N/A,,Clear,290,2014-01-24 06:03:00
1:24 AM,10.4,-4.0,52,30.45,10.0,WNW,8.1,-,N/A,,Clear,290,2014-01-24 06:24:00
1:45 AM,10.4,-2.2,57,30.45,10.0,WNW,10.4,18.4,N/A,,Clear,300,2014-01-24 06:45:00
2:03 AM,10.4,-4.0,52,30.45,10.0,WNW,9.2,17.3,N/A,,Clear,290,2014-01-24 07:03:00
2:24 AM,10.4,-4.0,52,30.46,10.0,WNW,9.2,-,N/A,,Clear,300,2014-01-24 07:24:00
2:45 AM,10.4,-4.0,52,30.46,10.0,WNW,6.9,-,N/A,,Clear,290,2014-01-24 07:45:00
3:03 AM,10.4,-4.0,52,30.47,10.0,WNW,9.2,-,N/A,,Clear,300,2014-01-24 08:03:00
3:24 AM,10.4,-4.0,52,30.47,10.0,WNW,11.5,16.1,N/A,,Clear,290,2014-01-24 08:24:00
3:45 AM,10.4,-4.0,52,30.47,10.0,WNW,12.7,18.4,N/A,,Clear,290,2014-01-24 08:45:00
4:03 AM,10.4,-4.0,52,30.48,10.0,West,8.1,-,N/A,,Clear,280,2014-01-24 09:03:00
4:24 AM,8.6,-4.0,57,30.49,10.0,WSW,5.8,-,N/A,,Clear,250,2014-01-24 09:24:00
4:45 AM,8.6,-4.0,57,30.50,10.0,WNW,4.6,-,N/A,,Clear,290,2014-01-24 09:45:00
5:06 AM,8.6,-4.0,57,30.49,10.0,WNW,9.2,-,N/A,,Clear,290,2014-01-24 10:06:00
5:24 AM,8.6,-4.0,57,30.50,10.0,West,11.5,-,N/A,,Clear,270,2014-01-24 10:24:00
5:45 AM,8.6,-4.0,57,30.51,10.0,West,8.1,-,N/A,,Clear,280,2014-01-24 10:45:00
6:06 AM,8.6,-4.0,57,30.52,10.0,Calm,Calm,-,N/A,,Clear,0,2014-01-24 11:06:00
6:24 AM,5.0,-4.0,66,30.52,10.0,West,8.1,-,N/A,,Clear,270,2014-01-24 11:24:00
6:45 AM,8.6,-4.0,57,30.53,10.0,West,9.2,17.3,N/A,,Clear,270,2014-01-24 11:45:00
7:06 AM,8.6,-4.0,57,30.54,10.0,West,8.1,-,N/A,,Clear,280,2014-01-24 12:06:00
7:24 AM,8.6,-4.0,57,30.54,10.0,West,5.8,-,N/A,,Clear,280,2014-01-24 12:24:00
7:45 AM,6.8,-4.0,61,30.54,10.0,West,6.9,-,N/A,,Clear,260,2014-01-24 12:45:00
8:06 AM,8.6,-4.0,57,30.54,10.0,West,8.1,-,N/A,,Clear,280,2014-01-24 13:06:00
8:24 AM,10.4,-4.0,52,30.55,10.0,West,10.4,16.1,N/A,,Clear,280,2014-01-24 13:24:00
9:06 AM,12.2,-4.0,48,30.55,10.0,West,11.5,18.4,N/A,,Clear,280,2014-01-24 14:06:00
9:24 AM,12.2,-4.0,48,30.56,10.0,West,11.5,-,N/A,,Clear,280,2014-01-24 14:24:00
11:06 AM,17.6,-2.2,42,30.53,10.0,West,11.5,-,N/A,,Clear,280,2014-01-24 16:06:00
11:24 AM,19.4,-2.2,39,30.52,10.0,WNW,9.2,-,N/A,,Clear,300,2014-01-24 16:24:00
11:45 AM,19.4,-2.2,39,30.51,10.0,WNW,9.2,-,N/A,,Clear,290,2014-01-24 16:45:00
12:06 PM,19.4,-2.2,39,30.49,10.0,West,9.2,-,N/A,,Clear,280,2014-01-24 17:06:00
12:24 PM,21.2,-4.0,33,30.47,10.0,SW,4.6,-,N/A,,Clear,220,2014-01-24 17:24:00
12:45 PM,21.2,-2.2,36,30.45,10.0,West,9.2,-,N/A,,Clear,270,2014-01-24 17:45:00
1:06 PM,21.2,-2.2,36,30.44,10.0,WNW,10.4,-,N/A,,Clear,290,2014-01-24 18:06:00
1:27 PM,21.2,-4.0,33,30.43,10.0,West,10.4,-,N/A,,Clear,260,2014-01-24 18:27:00
1:45 PM,21.2,-4.0,33,30.42,10.0,WSW,12.7,-,N/A,,Clear,250,2014-01-24 18:45:00
2:06 PM,21.2,-4.0,33,30.41,10.0,West,10.4,-,N/A,,Clear,270,2014-01-24 19:06:00
2:27 PM,23.0,-4.0,31,30.40,10.0,WSW,4.6,-,N/A,,Clear,250,2014-01-24 19:27:00
2:45 PM,23.0,-4.0,31,30.39,10.0,West,6.9,-,N/A,,Clear,270,2014-01-24 19:45:00
3:06 PM,23.0,-4.0,31,30.38,10.0,SW,8.1,-,N/A,,Clear,230,2014-01-24 20:06:00
3:27 PM,23.0,-4.0,31,30.37,10.0,West,10.4,-,N/A,,Clear,270,2014-01-24 20:27:00
3:45 PM,23.0,-4.0,31,30.36,10.0,SSW,8.1,-,N/A,,Clear,210,2014-01-24 20:45:00
4:06 PM,23.0,-5.8,28,30.35,10.0,WSW,6.9,-,N/A,,Clear,240,2014-01-24 21:06:00
4:27 PM,21.2,-5.8,30,30.34,10.0,SSW,9.2,-,N/A,,Clear,200,2014-01-24 21:27:00
4:45 PM,21.2,-4.0,33,30.33,10.0,SSW,6.9,-,N/A,,Clear,200,2014-01-24 21:45:00
5:06 PM,21.2,-4.0,33,30.34,10.0,SW,11.5,-,N/A,,Clear,220,2014-01-24 22:06:00
5:27 PM,19.4,-4.0,36,30.33,10.0,SSW,4.6,-,N/A,,Clear,210,2014-01-24 22:27:00
5:45 PM,17.6,-4.0,38,30.32,10.0,SSW,3.5,-,N/A,,Clear,200,2014-01-24 22:45:00
6:06 PM,17.6,-4.0,38,30.31,10.0,South,3.5,-,N/A,,Clear,180,2014-01-24 23:06:00
6:27 PM,14.0,-2.2,49,30.31,10.0,Calm,Calm,-,N/A,,Clear,0,2014-01-24 23:27:00
6:45 PM,14.0,-4.0,45,30.30,10.0,Calm,Calm,-,N/A,,Clear,0,2014-01-24 23:45:00
7:06 PM,12.2,-4.0,48,30.29,10.0,Calm,Calm,-,N/A,,Clear,0,2014-01-25 00:06:00
7:27 PM,12.2,-0.4,57,30.28,10.0,SSE,4.6,-,N/A,,Clear,160,2014-01-25 00:27:00
7:45 PM,12.2,1.4,62,30.26,10.0,South,4.6,-,N/A,,Clear,170,2014-01-25 00:45:00
8:06 PM,12.2,1.4,62,30.26,10.0,South,4.6,-,N/A,,Clear,170,2014-01-25 01:06:00
8:27 PM,12.2,1.4,62,30.24,10.0,South,4.6,-,N/A,,Clear,190,2014-01-25 01:27:00
8:45 PM,14.0,-0.4,53,30.23,10.0,South,5.8,-,N/A,,Clear,190,2014-01-25 01:45:00
9:06 PM,14.0,-0.4,53,30.21,10.0,South,6.9,-,N/A,,Clear,190,2014-01-25 02:06:00
9:27 PM,15.8,-0.4,49,30.20,10.0,South,4.6,-,N/A,,Clear,190,2014-01-25 02:27:00
9:45 PM,14.0,-0.4,53,30.20,10.0,South,4.6,-,N/A,,Clear,180,2014-01-25 02:45:00
10:06 PM,14.0,1.4,57,30.19,10.0,South,4.6,-,N/A,,Clear,180,2014-01-25 03:06:00
10:27 PM,12.2,1.4,62,30.18,10.0,SSW,9.2,-,N/A,,Clear,210,2014-01-25 03:27:00
10:48 PM,15.8,-0.4,49,30.16,10.0,SSW,8.1,-,N/A,,Clear,200,2014-01-25 03:48:00
11:06 PM,17.6,-0.4,45,30.15,10.0,SSW,8.1,-,N/A,,Clear,210,2014-01-25 04:06:00
11:27 PM,17.6,-0.4,45,30.14,10.0,SSW,9.2,-,N/A,,Clear,210,2014-01-25 04:27:00
11:48 PM,19.4,-2.2,39,30.12,10.0,SSW,9.2,17.3,N/A,,Clear,200,2014-01-25 04:48:00